Location: Cheching
(60.0667°N, 164.2167°W)
Time: 20:36:32
(UTC+00:00)

XW-2D - Pass Details

Date: 19 January 2021
Orbit: 505 x 525 km, 97.5° (Epoch: 07 March)

Event Time Altitude Azimuth Distance (km) Brightness Sun altitude
Rises 17:39:38 0° 14° (NNE) 2,668 ? -13.5°
Reaches altitude 10° 17:41:46 10° 11° (NNE) 1,778 ? -13.3°
Maximum altitude 17:45:33 63° 291° (WNW) 593 ? -12.8°
Drops below altitude 10° 17:49:20 10° 210° (SSW) 1,771 ? -12.4°
Sets 17:51:27 0° 207° (SSW) 2,657 ? -12.1°
